Location: Hall+in+Tirol
(47.2830°N, 11.5170°E)
Time: 15:45:03
(UTC+01:00)

Daily predictions for brighter satellites

Satellite Brightness Start Highest point End
(mag) Time Altitude Azimuth Time Altitude Azimuth Time Altitude Azimuth
Cosmos 2219 Rocket 2.2 17:27:14 10° SSW 17:32:53 79° ESE 17:38:31 10° NNE
Cosmos 2084 3.2 17:31:59 10° SW 17:35:52 88° SE 17:39:40 10° NE
Cosmos 2058 3.7 17:34:26 10° SSE 17:38:02 31° E 17:41:40 10° NNE
Cosmos 2333 Rocket 2.2 17:32:57 10° SSW 17:38:33 69° ESE 17:44:12 10° NNE
Aureole 2 Rocket 3.5 17:36:53 10° S 17:40:22 34° ESE 17:44:07 10° NE
Cosmos 2322 Rocket 4.4 17:37:36 10° WNW 17:41:04 16° NW 17:44:33 10° N
Cosmos 332 Rocket 4.0 17:36:56 10° SSW 17:41:47 75° WNW 17:46:41 10° NNE
Cosmos 1634 Rocket 4.0 17:35:44 10° N 17:41:58 82° E 17:48:08 10° S
MSX 3.8 17:36:48 10° SSE 17:42:31 77° ENE 17:48:16 10° NNW
Cosmos 1461 4.2 17:39:32 10° SSE 17:42:47 22° ESE 17:45:59 10° ENE
Cosmos 2278 Rocket 2.4 17:38:12 10° NNW 17:43:54 79° WSW 17:49:34 10° SSE
Cosmos 44 3.5 17:39:00 10° SSW 17:44:11 67° ESE 17:49:10 10° NE
MOS 1 4.4 17:38:51 10° SSE 17:44:31 87° WSW 17:50:14 10° NNW
CZ-2C R/B 2.7 17:39:36 10° S 17:44:31 73° WSW 17:49:19 10° NNW
Cosmos 1500 Rocket 3.5 17:40:27 10° S 17:44:47 77° E 17:49:10 10° NNE
Timation 1 Rocket 4.4 17:38:55 10° NNW 17:44:55 65° ENE 17:50:54 10° SE
CZ-4 R/B 4.4 17:44:35 10° SSE 17:48:43 76° ENE 17:52:52 10° N
Sich 1 4.4 17:48:43 10° SE 17:51:53 19° E 17:55:03 10° NE
ALOS 3.8 17:49:48 10° E 17:52:37 16° ENE 17:55:26 10° NNE
COSMOS 2441 4.3 17:49:22 10° SSE 17:54:13 81° ENE 17:59:05 10° NNW
Lacrosse 5 rocket 2.7 17:52:18 10° WNW 17:55:51 39° SW 17:59:32 10° SSE
Cosmos 1626 3.4 17:54:13 10° SE 17:57:06 21° E 18:00:01 10° NE
Cosmos 1125 Rocket 4.4 17:56:14 10° NNW 18:01:17 53° WSW 18:06:19 10° S
Cosmos 1633 Rocket 4.3 17:58:28 10° SE 18:01:47 21° E 18:05:06 10° NE
Cosmos 1726 2.9 18:04:34 10° NNW 18:08:17 56° W 18:11:59 10° S
SMAP 4.2 18:04:09 10° S 18:08:39 48° W 18:13:11 10° NNW
Cosmos 371 Rocket 3.9 18:05:06 10° SW 18:09:49 56° WNW 18:14:35 10° NNE
Cosmos 1328 4.2 18:06:25 10° SSW 18:10:20 65° W 18:14:17 10° N
Cosmos 2237 Rocket 2.2 18:05:03 10° SSW 18:10:42 88° WNW 18:16:24 10° NNE
Cosmos 2369 Rocket 3.5 18:07:04 10° N 18:11:15 20° NE 18:13:35 16° ENE
Meteor 1-27 4.4 18:07:06 10° NNW 18:12:57 88° W 18:18:48 10° S
Cosmos 1455 2.7 18:10:50 10° N 18:14:23 36° ENE 18:17:56 10° SE
Iridium 4 Rocket 4.2 18:12:40 10° SE 18:15:54 21° E 18:17:27 17° NE
Thor Agena Rocket 3.8 18:12:27 10° NNE 18:17:43 75° WNW 18:22:52 10° SSW
CZ-4C R/B 4.0 18:14:00 10° NW 18:18:56 22° NNE 18:22:38 15° NE
SL-16 R/B 2.4 18:13:33 10° S 18:18:59 51° ESE 18:24:14 11° NE
COSMOS 2428 4.3 18:15:46 10° WSW 18:20:50 32° NW 18:25:55 10° NNE
Meteor 2-10 4.2 18:15:57 10° NNW 18:21:03 75° W 18:26:17 10° S
Cosmos 1707 Rocket 3.5 18:19:26 10° N 18:23:45 64° E 18:28:03 10° SSE
Cosmos 1703 3.2 18:21:00 10° S 18:24:49 58° E 18:28:40 10° NNE
CZ-4 R/B 4.0 18:21:54 10° SSW 18:25:03 23° W 18:28:13 10° NW
COSMO-SKYMED 1 2.5 18:21:15 10° NNE 18:25:37 75° ESE 18:29:57 10° S
Cosmos 1538 Rocket 4.3 18:21:13 10° S 18:26:17 48° ESE 18:31:04 12° NNE
YAOGAN 1 4.4 18:23:23 10° SSW 18:27:20 34° W 18:31:19 10° NNW
SJ-6B 3.1 18:24:05 10° SE 18:28:01 46° ENE 18:32:01 10° N
FAST Rocket 4.4 18:25:45 10° SSE 18:28:14 39° E 18:29:22 27° NE
Cosmos 2279 Rocket 4.2 18:22:20 10° NNW 18:28:33 77° W 18:34:46 10° S
Cosmos 2297 4.0 18:22:56 10° NNW 18:28:39 74° WSW 18:34:21 10° SSE
Cosmos 1242 Rocket 4.0 18:26:00 10° NNE 18:27:36 20° NE 18:27:36 20° NE
Cosmos 2151 3.7 18:25:26 10° SSW 18:29:32 55° WNW 18:33:42 10° N
ATLAS 3B R/B 4.2 18:28:06 10° NW 18:33:21 21° N 18:36:51 15° NE
Cosmos 2084 Rocket 4.3 18:30:19 10° NNW 18:33:33 25° NE 18:33:52 25° NE
Cosmos 1184 Rocket 3.3 18:31:34 10° SSE 18:34:41 38° E 18:35:07 36° ENE
Abrixas 2.3 18:33:29 10° WSW 18:36:25 75° SSE 18:37:04 49° E
Cosmos 1666 Rocket 3.5 18:33:11 10° S 18:37:27 57° E 18:41:46 10° NNE
USA 215 3.2 18:31:21 10° ESE 18:37:55 81° NNE 18:44:30 10° NW
BREEZE M DEB (TANK) 3.4 18:38:26 10° W 18:40:40 24° SW 18:41:58 14° SSE
Cosmos 304 Rocket 3.8 18:39:29 10° SSW 18:44:19 82° WNW 18:48:53 12° NNE
Resurs 01 Rocket 2.0 18:42:09 13° SE 18:45:45 40° ENE 18:49:55 10° N
Resurs 1-3 4.2 18:46:26 34° ENE 18:46:30 34° ENE 18:50:28 10° N
FENGYUN 3A 3.8 18:41:39 10° SE 18:46:46 47° ENE 18:51:55 10° N
METEOR-M 4.0 18:42:20 10° SSE 18:47:42 85° ENE 18:53:05 10° NNW
BREEZE-M DEB (TANK) 2.6 18:46:07 10° SW 18:48:16 41° SSE 18:48:16 41° SSE
TIMED 4.4 18:46:59 10° NNW 18:51:23 76° ENE 18:55:45 10° SSE
Nadezhda 4 Rocket 3.9 18:45:10 10° S 18:51:25 73° E 18:57:44 10° NNE
Cosmos 1340 Rocket 3.8 18:50:49 10° SSW 18:54:36 45° WNW 18:58:24 10° N
Cosmos 2026 Rocket 4.5 18:49:56 10° SSE 18:55:23 34° E 18:56:40 31° ENE
Lacrosse 4 Rocket 1.2 18:52:48 10° NNW 18:56:53 88° SW 18:59:23 22° SSE
NOAA 12 4.2 18:52:04 10° S 18:57:18 75° WSW 19:02:36 10° NNW
Meteor 1-28 Rocket 3.6 18:54:47 10° N 18:58:28 63° WNW 19:02:09 10° SSW
FREGAT/IRIS 2.7 18:55:54 10° S 18:58:57 78° WSW 19:02:02 10° NNW
ATLAS 5 CENTAUR R/B 3.2 18:55:24 10° NNW 19:00:19 29° NNE 19:01:05 28° NE
Cosmos 773 Rocket 3.9 18:56:39 10° S 19:01:45 65° ESE 19:04:18 30° NE
Cosmos 1869 3.2 19:02:18 10° N 19:06:23 90° WNW 19:10:25 10° S
Lacrosse 5 2.9 19:05:23 10° NW 19:09:50 29° N 19:10:27 29° NNE
Aureole 1 Rocket 3.9 19:04:25 10° SSW 19:10:05 74° ESE 19:17:33 10° NNE
Cosmos 1470 Rocket 4.2 19:06:15 10° S 19:09:12 38° SE 19:09:12 38° SE
Cosmos 1092 Rocket 3.9 19:07:14 10° S 19:13:33 77° E 19:19:55 10° NNE
Cosmos 2242 Rocket 3.7 19:09:27 10° NNW 19:13:52 74° W 19:18:17 10° S
CENTAUR R/B 4.1 19:08:28 10° W 19:14:07 29° NNW 19:18:47 16° NNE
Cosmos 2219 Rocket 4.2 19:13:08 10° W 19:17:29 22° NW 19:21:51 10° N
Cosmos 1943 Rocket 3.4 19:13:06 10° N 19:16:31 26° NNE 19:16:31 26° NNE
Cosmos 972 Rocket 4.1 19:15:52 10° NNW 19:21:01 58° ENE 19:21:24 57° E
Cosmos 1461 3.7 19:17:43 10° WSW 19:21:43 46° NW 19:22:36 39° N
USA 229 DEB 3.6 19:15:25 10° SSW 19:22:13 69° SE 19:24:40 42° NE
USA 229 3.6 19:15:31 10° SSW 19:22:19 69° SE 19:24:43 42° ENE
Cosmos 2333 Rocket 4.1 19:18:46 10° W 19:23:21 25° NW 19:28:00 10° N
Cosmos 1603 3.6 19:18:13 10° S 19:23:43 62° ESE 19:24:13 59° E
FengYun 1-2 T 4.2 19:18:53 10° SSE 19:24:27 83° WSW 19:30:00 10° NNW
Sich 1 4.1 19:25:00 10° SSW 19:29:15 45° WNW 19:33:32 10° N
ALOS 2.4 19:24:51 10° S 19:29:30 73° WSW 19:34:12 10° NNW
Cosmos 1626 4.1 19:29:03 10° SW 19:32:20 29° WNW 19:35:10 13° NNW
Cosmos 2195 Rocket 4.3 19:30:53 10° S 19:36:59 77° E 19:43:10 10° NNE
Cosmos 1633 Rocket 4.3 19:35:10 10° SW 19:39:19 40° WNW 19:42:50 14° N
Cosmos 292 Rocket 4.2 19:36:06 10° SSW 19:39:45 53° SSW 19:39:45 53° SSW
Spot 2 Rocket 4.1 19:44:47 10° S 19:49:43 55° W 19:54:41 10° NNW
Cosmos 2237 Rocket 4.4 19:51:34 10° W 19:55:36 20° NW 19:59:31 11° N
Iridium 4 Rocket 4.4 19:51:35 10° SSW 19:55:40 37° W 19:57:22 26° NW
Cosmos 2369 Rocket 2.2 19:50:22 10° NNW 19:55:27 72° NNW 19:55:27 72° NNW
Cosmos 1417 Rocket 4.3 19:52:13 10° N 19:58:27 87° W 19:58:51 79° S
SL-16 R/B 3.7 19:58:20 10° WSW 20:03:20 31° NW 20:06:09 21° N
CZ-4C R/B 3.4 20:02:36 10° NW 20:07:50 43° N 20:07:50 43° N
Cosmos 1655 Rocket 4.2 20:03:15 10° S 20:16:57 - N 20:08:39 66° SSW
BREEZE-M DEB (TANK) 4.2 20:06:41 10° WNW 20:18:01 68° WNW 20:18:01 68° WNW
USA 215 4.4 20:18:44 27° S 20:21:19 36° SW 20:27:16 10° WNW
Resurs 01 Rocket 3.8 20:19:40 14° SW 20:22:21 24° W 20:25:58 10° NW
ATLAS 3B R/B 3.9 20:19:44 10° NNW 20:24:07 31° N 20:24:07 31° N
ATLAS 5 CENTAUR R/B 3.8 20:39:47 10° NW 20:42:39 31° NW 20:42:39 31° NW
Lacrosse 5 4.4 20:48:31 10° NW 20:49:40 17° NW 20:49:40 17° NW
Cosmos 1943 Rocket 4.4 20:56:32 10° NW 20:58:04 19° NW 20:58:04 19° NW
